User: anonymous   Login
Location: Dresden
(51.0300°N, 13.7800°E)
Time: 05:35:43
(UTC+01:00)
Language:

Oscar 11 - Orbit

View from above orbital plane
View from above orbital plane
View from above satellite
View from above satellite

Ground track
Ground track

The orbit data is extracted from the following two-line orbital elements,

1 14781U 84021B   25346.86053170  .00002939  00000-0  30918-3 0  9993
2 14781  97.7811 309.8871 0009320  81.9065 278.3210 14.90143516229375
Epoch (UTC): 12 December 2025 20:39:09
Eccentricity: 0.0009320
inclination: 97.7811°
perigee height: 591 km
apogee height: 604 km
right ascension of ascending node: 309.8871°
argument of perigee: 81.9065°
revolutions per day: 14.90143516
mean anomaly at epoch: 278.3210°
orbit number at epoch: 22937

The dashed part of the orbit path shows where the satellite is in the earth's shadow,  

DLR